Find KUIPER-00434

NORAD ID: 68938 Int'l Des: 2026-098V Owner: KUIP Country: US Constellation: amazon-leo operational
LEOCIRCULAR

Live-Position

3D-Globus wird geladen...

Über KUIPER-00434

Beschreibung wird geladen...

Nächste Überflüge

Passes for default location (London). Set your location on the main map for personalized predictions.

Höhenverlauf

Loading altitude history...

Zweizeiliger Elementsatz

1 68938U 26098V 26125.91668981 .00035112 00000-0 10444-2 0 9990
2 68938 51.8739 271.3842 0007677 355.9992 39.1111 15.34379985 1309
Epoch: 5. Mai 2026 • Age: 10 hours

Aktueller Status

Höhe 465.9 km
Geschwindigkeit 7.64 km/s
Subsatellitenpunkt 46.96°N, 10.82°W
Startdatum 30. Apr. 2026
Alter 6 days
Typ internet

Technische Details

Klassifizierung Payload
Masse 490.00 kg
Trockenmasse 490.00 kg
Gesamtmasse 490.00 kg
Länge 1.80 m
Durchmesser 0.70 m
Spannweite 5.00 m
Form Box + 2 pan
Hersteller KUIP
Bus-Typ Kuiper
Phasenstatus In Orbit
Besitzer/Staat KUIP/US

Most Searched